Weather History for Ozark, AL

Change the Weather History Date:

Sunday, May 5, 2013

  Actual Average Record
Temperature  
Mean Temperature 59 °F -  
Max Temperature 75 °F 80 °F 89 °F (2000)
Min Temperature 43 °F 58 °F 42 °F (1997)
Degree Days  
Heating Degree Days 6    
Growing Degree Days 9 (Base 50)    
Moisture  
Dew Point 45 °F    
Average Humidity 66    
Maximum Humidity 94    
Minimum Humidity 35    
Precipitation  
Precipitation 0.00 in - - ()
Sea Level Pressure  
Sea Level Pressure 29.87 in    
Wind  
Wind Speed 7 mph (West)    
Max Wind Speed 17 mph    
Max Gust Speed 25 mph    
Visibility 10 miles    
Events      
Averages and records for this station are not official NWS values.
T = Trace of Precipitation, MM = Missing Value Source: NWS Daily Summary

Daily Weather History Graph

Daily Weather History Graph

Search for Another Location

Airport:

Trip Planner

Search our weather history database for the weather conditions in past years. The results will help you decide how hot, cold, wet, or windy it might be!

Date:

Astronomy

May. 05, 2013 Rise Set
Actual Time 5:54 AM CDT 7:25 PM CDT
Civil Twilight 5:28 AM CDT 7:51 PM CDT
Nautical Twilight 4:57 AM CDT 8:22 PM CDT
Astronomical Twilight 4:24 AM CDT 8:55 PM CDT
Moon 3:08 AM CDT (5/5) 3:38 PM CDT (5/5)
Length of Visible Light 14h 22m
Length of Day
13h 30m
Waning Crescent, 18% of the Moon is Illuminated
May 5
Waning Crescent
May 9
New
May 17
First Quarter
May 24
Full
May 31
Last Quarter

Hourly Weather History & Observations

Time (CDT) Temp. Windchill Dew Point Humidity Pressure Visibility Wind Dir Wind Speed Gust Speed Precip Events Conditions
12:58 AM 45.5 °F 44.2 °F 43.3 °F 92% 29.89 in 10.0 mi WNW 3.5 mph - N/A   Clear
1:58 AM 45.3 °F 43.0 °F 43.5 °F 93% 29.88 in 10.0 mi WNW 4.6 mph - N/A   Clear
2:58 AM 45.1 °F 43.7 °F 43.0 °F 92% 29.87 in 10.0 mi WNW 3.5 mph - N/A   Clear
3:58 AM 44.1 °F 41.5 °F 41.9 °F 92% 29.88 in 10.0 mi WNW 4.6 mph - N/A   Clear
4:58 AM 43.5 °F 41.9 °F 41.7 °F 93% 29.88 in 10.0 mi West 3.5 mph - N/A   Clear
5:58 AM 43.3 °F 41.7 °F 41.7 °F 94% 29.89 in 10.0 mi SW 3.5 mph - N/A   Clear
6:58 AM 47.1 °F - 44.6 °F 91% 29.90 in 10.0 mi SSE 1.2 mph - N/A   Clear
7:58 AM 52.9 °F - 46.9 °F 80% 29.90 in 10.0 mi ESE 2.3 mph - N/A   Clear
8:58 AM 57.9 °F - 47.7 °F 69% 29.90 in 10.0 mi Variable 2.3 mph - N/A   Clear
9:58 AM 63.3 °F - 49.3 °F 60% 29.88 in 10.0 mi South 6.9 mph - N/A   Partly Cloudy
10:58 AM 68.7 °F - 53.4 °F 58% 29.86 in 10.0 mi SSW 10.4 mph - N/A   Scattered Clouds
11:58 AM 70.7 °F - 54.9 °F 57% 29.84 in 10.0 mi SSW 12.7 mph - N/A   Overcast
12:58 PM 70.5 °F - 54.1 °F 56% 29.82 in 10.0 mi SSW 8.1 mph - N/A   Mostly Cloudy
1:58 PM 74.5 °F - 49.6 °F 42% 29.80 in 10.0 mi SW 16.1 mph 25.3 mph N/A   Scattered Clouds
2:58 PM 75.0 °F - 45.5 °F 35% 29.79 in 10.0 mi WSW 16.1 mph 25.3 mph N/A   Partly Cloudy
3:23 PM 73.4 °F - 44.6 °F 36% 29.77 in 10.0 mi SW 17.3 mph - N/A   Clear
3:58 PM 73.4 °F - 44.4 °F 35% 29.78 in 10.0 mi West 15.0 mph 21.9 mph N/A   Scattered Clouds
4:58 PM 70.0 °F - 48.0 °F 46% 29.81 in 10.0 mi WNW 15.0 mph 25.3 mph N/A   Clear
5:58 PM 65.8 °F - 45.0 °F 47% 29.83 in 10.0 mi WNW 11.5 mph 20.7 mph N/A   Clear
6:58 PM 61.5 °F - 40.1 °F 45% 29.86 in 10.0 mi WNW 10.4 mph 23.0 mph N/A   Clear
8:58 PM 55.2 °F - 40.5 °F 58% 29.91 in 10.0 mi WNW 8.1 mph - N/A   Clear
9:55 PM 53.2 °F - 41.5 °F 65% 29.94 in 10.0 mi WNW 8.1 mph - N/A   Clear
9:58 PM 53.2 °F - 41.5 °F 65% 29.94 in 10.0 mi WNW 8.1 mph - N/A   Clear
10:58 PM 50.4 °F - 41.9 °F 73% 29.95 in 10.0 mi WNW 5.8 mph - N/A   Clear
11:58 PM 49.6 °F - 41.9 °F 75% 29.96 in 10.0 mi West 4.6 mph - N/A   Clear